Regional Weather Roundup
Issued by NWS San Diego, CA

Home | Current Version | Previous Version | Text Only | Print | Product List | Glossary On
Versions: 1 2 3 4 5 6 7 8 9 10 11 12 13 14 15 16 17 18 19 20 21 22 23 24 25 26 27 28 29 30 31 32 33 34 35 36 37 38 39 40 41 42 43 44 45 46 47 48 49 50
000
ASUS46 KSGX 311111
RWRSGX

SAN DIEGO HOURLY WEATHER ROUNDUP
NATIONAL WEATHER SERVICE SAN DIEGO CA
400 AM PDT MON AUG 31 2015

NOTE: "FAIR" INDICATES FEW OR NO CLOUDS BELOW 12,000 FEET WITH NO
SIGNIFICANT WEATHER AND/OR OBSTRUCTIONS TO VISIBILITY.

CAZ042-043-060-061-PZZ750-775-311200-

GREATER SAN DIEGO AREA

CITY           SKY/WX    TMP DP  RH WIND       PRES   REMARKS
LINDBERGH FLD  MOCLDY    70  63  78 SW3       29.86F
POINT LOMA       N/A     67  63  86 S3          N/A
NATIONAL CITY    N/A     70  66  87 CALM      29.86S
CHULA VISTA      N/A     67  64  91 CALM      29.79S
IMPERIAL BEACH CLOUDY   N/A N/A N/A SE3       29.86F
BROWN FIELD    CLOUDY    65  64  97 S3        29.87S
MIRAMAR MCAS   CLOUDY    69  61  75 CALM      29.86S
MONTGOMERY FLD CLOUDY    68  63  84 S3        29.86F

$$

NORTH SAN DIEGO COUNTY

CITY           SKY/WX    TMP DP  RH WIND       PRES   REMARKS
CAMP PENDLETON CLOUDY    70  63  78 S6        29.85S
OCEANSIDE AP   CLOUDY    69  64  84 E5        29.84F
OCEANSIDE HBR    N/A     70  66  87 E2        29.87F
VISTA            N/A     68  62  82 CALM      29.83S
CARLSBAD       CLOUDY    68  64  87 S6        29.85S
DEL MAR          N/A     65  64  94 CALM      29.88S
FALLBROOK        N/A     67  67 100 CALM      29.85S
ESCONDIDO        N/A     66  63  89 CALM      29.86S
SAN MARCOS       N/A     66  62  87 CALM      29.83S
POWAY            N/A     64  60  88 CALM      29.86S

$$

EAST SAN DIEGO COUNTY

CITY           SKY/WX    TMP DP  RH WIND       PRES   REMARKS
RAMONA         PTCLDY    62  58  86 CALM      29.88S
SANTEE LAKES     N/A     64  61  90 CALM      29.84S
LA MESA          N/A     65  64  94 CALM      29.78F
JAMUL            N/A     62  61  95 CALM      29.84S
DESCANSO N       N/A     62  44  52 E7        29.72R
CAMPO            N/A     58  48  69 NE5       29.91S

$$

ORANGE COUNTY AND THE LOS ANGELES BASIN

CITY           SKY/WX    TMP DP  RH WIND       PRES   REMARKS
JOHN WAYNE AP  CLOUDY    70  64  81 SE7       29.84S
LAKE FOREST FR   N/A     67  62  81 CALM      29.73S
SANTA ANA        N/A     72  66  81 CALM      29.79F
HUNTINGTON BCH   N/A     70  66  85 SE13      29.87R
LOS ALAMITOS   CLOUDY    70  66  88 SE6       29.84S
FULLERTON      CLOUDY    72  66  81 E6        29.83F
LONG BEACH     CLOUDY    72  64  76 SE9       29.84S
L.A. AP        PTCLDY    69  64  84 CALM      29.84S
L.A. DOWNTOWN  PTCLDY    70  64  81 SE3       29.84S

$$

THE INLAND EMPIRE

CITY           SKY/WX    TMP DP  RH WIND       PRES   REMARKS
CORONA         CLEAR     66  63  90 CALM      29.86S
CHINO          CLEAR     67  61  81 CALM      29.87S
ONTARIO        CLEAR     69  60  73 SW3       29.86S
RIVERSIDE AP   CLEAR     70  59  68 CALM      29.86S
MORENO VALLEY    N/A     66  64  90 CALM      29.86S
MARCH ARB      CLEAR     66  60  81 CALM      29.88S
HORSETHIEF CYN   N/A     65  56  71 CALM      29.86S
PERRIS           N/A     66  62  86 SE1       29.89S
MENIFEE          N/A     67  64  89 SW2       29.93S
HEMET EAST       N/A     68  47  48 CALM      29.85S
FRENCH VALLEY  FAIR      64  61  88 CALM      29.89S
TEMECULA         N/A     64  62  91 CALM      29.85S

$$

SAN BERNARDINO AND RIVERSIDE COUNTY MOUNTAINS

CITY           SKY/WX    TMP DP  RH WIND       PRES   REMARKS
BIG BEAR AP    CLEAR     45  34  65 CALM      30.16F
ANGELUS OAKS     N/A     57  37  48 CALM      29.73R
PINE COVE        N/A     62  38  41 CALM      29.80R

$$

SOUTHERN DESERT INCLUDING THE COACHELLA VALLEY

CITY           SKY/WX    TMP DP  RH WIND       PRES   REMARKS
PALM SPRINGS   CLEAR     82  58  43 CALM      29.75R
THOUSAND PALMS   N/A     85  56  36 NW12      29.70S
PALM DESERT      N/A     80  61  52 CALM        N/A
THERMAL        PTCLDY    85  58  39 NW10      29.69R
BLYTHE         PTCLDY    86  51  29 CALM      29.73R
IMPERIAL AP    PTCLDY    86  45  23 W8        29.70S
EL CENTRO NAS  PTCLDY    84  43  23 SW7       29.72S
YUMA AZ        CLEAR     86  66  51 CALM      29.72S

$$

UPPER DESERT

CITY           SKY/WX    TMP DP  RH WIND       PRES   REMARKS
VICTORVILLE AP CLEAR     66  48  52 CALM      29.95S
HESPERIA         N/A     64  56  75 CALM      29.90R
APPLE VALLEY     N/A     69  49  49 W2        30.01R
PALMDALE       CLEAR     68  48  48 SW3       29.92F
LANCASTER      CLEAR     69  47  45 W13       29.91S
EDWARDS AFB    CLEAR     68  49  50 SW9       29.88S
DAGGETT        CLEAR     75  47  36 W14       29.87R
29 PALMS N     CLEAR     78  50  37 W14       29.92S
NEEDLES        MOCLDY    91  41  17 SW9       29.74S

$$

REGIONAL REPORTS

CITY           SKY/WX    TMP DP  RH WIND       PRES   REMARKS
SANTA BARBARA  CLEAR     67  62  84 NE3       29.82S
SANDBERG       CLEAR     60  43  53 N15       30.04S
LAS VEGAS NV   PTCLDY    82  42  24 CALM      29.79S
PHOENIX AZ     PTCLDY    87  65  47 E8        29.81S
TIJUANA        MOCLDY    64  61  88 CALM      29.88F
ENSENADA NW      N/A     71  32  24 W1        29.84S

$$

OFFSHORE ISLANDS

CITY           SKY/WX    TMP DP  RH WIND       PRES   REMARKS
CATALINA ARPT  CLEAR     64  58  80 E3        29.88S
SAN NICOLAS IS CLEAR    N/A N/A N/A W13       29.84R

$$

MARINE AND OFFSHORE BUOY REPORTS

STATION/POSITION SKY/WX   TEMP    WIND        PRES    SWELL
                          AIR SEA DIR/SP/G            HT/PER/DIR
                          (F)     (DEG/KT/KT) (MB)    (FT/S/D)
TANNER BANKS               67 69  310/ 23/ 27 1010.4F   5/310/ 9
S CLEMENTE BASIN           67 72  260/ 10/ 14 1010.7S   5/290/ 8
SO. S. ROSA ISLA           65 65  330/ 21/ 25 1009.3F   5/17
W. S. BARBARA CH           63 65  330/ 17/ 21 1009.7F   5/300/17
M. S. BARBARA CH           68 70  200/  6/  8 1010.1S
S. MONICA BASIN            70 73  120/  8/ 10 1010.1R   3/220/16
S PEDRO CHANNEL               73                N/A     2/250/15
DANA POINT                    74                N/A     2/200/13
OCEANSIDE OFFSHR              75                N/A     2/200/13
TORREY PINES OTR              75                N/A     2/210/13
MISSION BAY BUOY              76                N/A     2/190/13
POINT LOMA SOUTH              74                N/A     2/200/13

$$




USA.gov is the U.S. government's official web portal to all federal, state and local government web resources and services.